timestamp,surface_pressure_avg,surface_temp_avg,battery_voltage,lat,long
2018-02-23 00:00:00+00:00,259.0198,0.8,12.81,47.84626,-54.09684
2018-02-23 00:10:00+00:00,264.8664,0.8,12.81,47.84626,-54.09684
2018-02-23 00:20:00+00:00,274.6531,0.8,12.89,47.84626,-54.09684
2018-02-23 00:30:00+00:00,271.2414,0.7,12.89,47.84626,-54.09684
2018-02-23 00:40:00+00:00,261.9597,0.67,12.89,47.84626,-54.09684
2018-02-23 00:50:00+00:00,274.1398,1.2,12.89,47.84626,-54.09684
2018-02-23 01:00:00+00:00,278.8914,0.67,12.81,47.84626,-54.09684
2018-02-23 01:10:00+00:00,275.9764,0.4,12.81,47.84626,-54.09684
2018-02-23 01:20:00+00:00,278.8564,0.5,12.89,47.84626,-54.09684
2018-02-23 01:30:00+00:00,290.0264,1.3,12.89,47.84626,-54.09684
2018-02-23 01:40:00+00:00,287.3881,1.19,12.89,47.84626,-54.09684
2018-02-23 01:50:00+00:00,282.0514,0.76,12.89,47.84626,-54.09684
2018-02-23 02:00:00+00:00,290.0881,1.16,12.81,47.84626,-54.09684
2018-02-23 02:10:00+00:00,304.1331,1.2,12.81,47.84626,-54.09684
2018-02-23 02:20:00+00:00,304.7963,1.2,12.89,47.84626,-54.09684
2018-02-23 02:30:00+00:00,309.3997,1.1,12.89,47.84626,-54.09684
2018-02-23 02:40:00+00:00,322.4696,1.2,12.89,47.84626,-54.09684
2018-02-23 02:50:00+00:00,332.5662,1.2,12.89,47.84626,-54.09684
2018-02-23 03:00:00+00:00,327.1979,1.2,12.81,47.84626,-54.09684
2018-02-23 03:10:00+00:00,331.1197,1.16,12.73,47.84626,-54.09684
2018-02-23 03:20:00+00:00,341.2396,1.19,12.81,47.84626,-54.09684
2018-02-23 03:30:00+00:00,344.343,1.2,12.81,47.84626,-54.09684
2018-02-23 03:40:00+00:00,335.6131,1.19,12.89,47.84626,-54.09684
2018-02-23 03:50:00+00:00,333.9913,1.17,12.89,47.84626,-54.09684
2018-02-23 04:00:00+00:00,342.528,1.2,12.81,47.84626,-54.09684
2018-02-23 04:10:00+00:00,337.6713,1.2,12.73,47.84626,-54.09684
2018-02-23 04:20:00+00:00,327.4431,1.2,12.81,47.84626,-54.09684
2018-02-23 04:30:00+00:00,337.0046,1.2,12.81,47.84626,-54.09684
2018-02-23 04:40:00+00:00,350.3046,1.2,12.81,47.84626,-54.09684
2018-02-23 04:50:00+00:00,339.2913,1.2,12.81,47.84626,-54.09684
2018-02-23 05:00:00+00:00,329.6213,1.2,12.81,47.84626,-54.09684
2018-02-23 05:10:00+00:00,342.0613,1.2,12.73,47.84626,-54.09684
2018-02-23 05:20:00+00:00,348.3313,1.2,12.81,47.84626,-54.09684
2018-02-23 05:30:00+00:00,331.2563,1.2,12.81,47.84626,-54.09684
2018-02-23 05:40:00+00:00,328.353,1.1,12.81,47.84626,-54.09684
2018-02-23 05:50:00+00:00,342.7263,1.17,12.81,47.84626,-54.09684
2018-02-23 06:00:00+00:00,337.1996,1.17,12.73,47.84626,-54.09684
2018-02-23 06:10:00+00:00,322.6697,1.1,12.73,47.84626,-54.09684
2018-02-23 06:20:00+00:00,323.8413,1.1,12.81,47.84626,-54.09684
2018-02-23 06:30:00+00:00,325.8281,1.15,12.81,47.84626,-54.09684
2018-02-23 06:40:00+00:00,313.5563,1.17,12.81,47.84626,-54.09684
2018-02-23 06:50:00+00:00,300.278,1.15,12.81,47.84626,-54.09684
2018-02-23 07:00:00+00:00,296.793,1.14,12.73,47.84626,-54.09684
2018-02-23 07:10:00+00:00,293.8114,1.18,12.73,47.84626,-54.09684
2018-02-23 07:20:00+00:00,280.9914,1.17,12.81,47.84626,-54.09684
2018-02-23 07:30:00+00:00,268.8297,1.11,12.81,47.84626,-54.09684
2018-02-23 07:40:00+00:00,261.9164,1.11,12.81,47.84626,-54.09684
2018-02-23 07:50:00+00:00,255.3481,1.11,12.81,47.84626,-54.09684
2018-02-23 08:00:00+00:00,247.9181,1.12,12.73,47.84626,-54.09684
2018-02-23 08:10:00+00:00,239.5298,1.1,12.73,47.84626,-54.09684
2018-02-23 08:20:00+00:00,230.4048,1.1,12.81,47.84626,-54.09684
2018-02-23 08:30:00+00:00,225.1064,1.1,12.81,47.84626,-54.09684
2018-02-23 08:40:00+00:00,223.1014,1.1,12.81,47.84626,-54.09684
2018-02-23 08:50:00+00:00,218.4564,1.1,12.81,47.84626,-54.09684
2018-02-23 09:00:00+00:00,214.0114,1.1,12.73,47.84626,-54.09684
2018-02-23 09:10:00+00:00,210.2881,1.1,12.65,47.84626,-54.09684
2018-02-23 09:20:00+00:00,208.1814,1.08,12.81,47.84626,-54.09684
2018-02-23 09:30:00+00:00,203.7965,0.9,12.81,47.84626,-54.09684
2018-02-23 09:40:00+00:00,197.7598,0.59,12.81,47.84626,-54.09684
2018-02-23 09:50:00+00:00,197.2865,0.2,12.81,47.84626,-54.09684
2018-02-23 10:00:00+00:00,198.5565,0.2,12.73,47.84626,-54.09684
2018-02-23 10:10:00+00:00,193.3881,0.18,12.65,47.84626,-54.09684
2018-02-23 10:20:00+00:00,187.1631,0.18,12.81,47.84626,-54.09684
2018-02-23 10:30:00+00:00,188.8098,0.18,12.73,47.84626,-54.09684
2018-02-23 10:40:00+00:00,191.6231,0.2,12.89,47.84626,-54.09684
2018-02-23 10:50:00+00:00,188.0214,0.2,13.21,47.84626,-54.09684
2018-02-23 11:00:00+00:00,187.4081,0.16,13.44,47.84626,-54.09684
2018-02-23 11:10:00+00:00,192.1114,0.2,13.84,47.84626,-54.09684
2018-02-23 11:20:00+00:00,196.8765,0.2,13.44,47.84626,-54.09684
2018-02-23 11:30:00+00:00,195.7365,0.17,13.44,47.84626,-54.09684
2018-02-23 11:40:00+00:00,193.2465,0.1,13.44,47.84626,-54.09684
2018-02-23 11:50:00+00:00,192.2899,0.1,13.76,47.84626,-54.09684
2018-02-23 12:00:00+00:00,193.6831,0.1,13.44,47.84626,-54.09684
2018-02-23 12:10:00+00:00,200.5448,0.09,13.68,47.84626,-54.09684
2018-02-23 12:20:00+00:00,205.2514,0.0,13.44,47.84626,-54.09684
2018-02-23 12:30:00+00:00,205.7631,-0.1,13.84,47.84626,-54.09684
2018-02-23 12:40:00+00:00,211.7881,-0.1,13.44,47.84626,-54.09684
2018-02-23 12:50:00+00:00,218.5148,-0.1,13.84,47.84626,-54.09684
2018-02-23 13:00:00+00:00,216.8098,-0.13,13.6,47.84626,-54.09684
2018-02-23 13:10:00+00:00,217.3348,-0.17,13.53,47.84626,-54.09684
2018-02-23 13:20:00+00:00,225.7648,-0.19,13.92,47.84626,-54.09684
2018-02-23 13:30:00+00:00,231.0131,-0.1,13.68,47.84626,-54.09684
2018-02-23 13:40:00+00:00,233.7864,-0.1,13.92,47.84626,-54.09684
2018-02-23 13:50:00+00:00,240.3281,-0.2,13.44,47.84626,-54.09684
2018-02-23 14:00:00+00:00,246.1014,-0.13,13.44,47.84626,-54.09684
2018-02-23 14:10:00+00:00,248.1998,-0.11,13.92,47.84626,-54.09684
2018-02-23 14:20:00+00:00,252.9364,-0.1,13.92,47.84626,-54.09684
2018-02-23 14:30:00+00:00,259.7781,-0.2,14.0,47.84626,-54.09684
2018-02-23 14:40:00+00:00,265.4914,-0.2,13.44,47.84626,-54.09684
2018-02-23 14:50:00+00:00,269.3081,-0.1,14.0,47.84626,-54.09684
2018-02-23 15:00:00+00:00,275.608,-0.1,13.44,47.84626,-54.09684
2018-02-23 15:10:00+00:00,283.0147,-0.14,13.44,47.84626,-54.09684
2018-02-23 15:20:00+00:00,287.2413,0.03,13.53,47.84626,-54.09684
2018-02-23 15:30:00+00:00,290.388,0.27,13.84,47.84626,-54.09684
2018-02-23 15:40:00+00:00,296.5563,0.5,13.68,47.84626,-54.09684
2018-02-23 15:50:00+00:00,306.358,0.56,13.68,47.84626,-54.09684
2018-02-23 16:00:00+00:00,308.2047,0.35,13.53,47.84626,-54.09684
2018-02-23 16:10:00+00:00,311.1713,0.35,13.53,47.84626,-54.09684
2018-02-23 16:20:00+00:00,322.6213,0.73,13.53,47.84626,-54.09684
2018-02-23 16:30:00+00:00,326.1363,0.7,13.44,47.84626,-54.09684
2018-02-23 16:40:00+00:00,322.443,0.61,13.44,47.84626,-54.09684
2018-02-23 16:50:00+00:00,324.6613,0.76,13.76,47.84626,-54.09684
2018-02-23 17:00:00+00:00,330.4064,0.9,13.44,47.84626,-54.09684
2018-02-23 17:10:00+00:00,325.6547,0.9,13.44,47.84626,-54.09684
2018-02-23 17:20:00+00:00,322.0813,0.8,13.84,47.84626,-54.09684
2018-02-23 17:30:00+00:00,328.033,0.95,13.53,47.84626,-54.09684
2018-02-23 17:40:00+00:00,325.7596,1.0,14.08,47.84626,-54.09684
2018-02-23 17:50:00+00:00,319.9812,0.9,14.16,47.84626,-54.09684
2018-02-23 18:00:00+00:00,320.2297,0.9,14.08,47.84626,-54.09684
2018-02-23 18:10:00+00:00,329.6646,1.0,14.08,47.84626,-54.09684
2018-02-23 18:20:00+00:00,330.0945,1.0,13.68,47.84626,-54.09684
2018-02-23 18:30:00+00:00,319.8697,0.9,13.92,47.84626,-54.09684
2018-02-23 18:40:00+00:00,315.9797,0.91,13.53,47.84626,-54.09684
2018-02-23 18:50:00+00:00,314.4514,1.04,14.16,47.84626,-54.09684
2018-02-23 19:00:00+00:00,308.8181,1.0,13.84,47.84626,-54.09684
2018-02-23 19:10:00+00:00,298.8247,0.9,13.68,47.84626,-54.09684
2018-02-23 19:20:00+00:00,295.3563,0.94,13.76,47.84626,-54.09684
2018-02-23 19:30:00+00:00,288.0797,1.0,13.68,47.84626,-54.09684
2018-02-23 19:40:00+00:00,279.5664,1.0,13.6,47.84626,-54.09684
2018-02-23 19:50:00+00:00,273.2864,0.8,13.44,47.84626,-54.09684
2018-02-23 20:00:00+00:00,268.1731,0.88,13.29,47.84626,-54.09684
2018-02-23 20:10:00+00:00,260.8498,1.04,13.05,47.84626,-54.09684
2018-02-23 20:20:00+00:00,253.9331,1.1,13.13,47.84626,-54.09684
2018-02-23 20:30:00+00:00,243.0981,1.1,13.05,47.84626,-54.09684
2018-02-23 20:40:00+00:00,237.7498,1.1,13.05,47.84626,-54.09684
2018-02-23 20:50:00+00:00,234.9114,1.1,13.05,47.84626,-54.09684
2018-02-23 21:00:00+00:00,227.5414,0.9,12.97,47.84626,-54.09684
2018-02-23 21:10:00+00:00,223.5631,0.89,12.89,47.84626,-54.09684
2018-02-23 21:20:00+00:00,226.5081,0.91,12.97,47.84626,-54.09684
2018-02-23 21:30:00+00:00,224.9798,1.0,12.97,47.84626,-54.09684
2018-02-23 21:40:00+00:00,219.3448,0.98,12.97,47.84626,-54.09684
2018-02-23 21:50:00+00:00,219.5531,0.99,12.97,47.84626,-54.09684
2018-02-23 22:00:00+00:00,220.0948,1.01,12.89,47.84626,-54.09684
2018-02-23 22:10:00+00:00,218.7881,1.02,12.89,47.84626,-54.09684
2018-02-23 22:20:00+00:00,218.1715,1.06,12.97,47.84626,-54.09684
2018-02-23 22:30:00+00:00,221.5098,1.09,12.97,47.84626,-54.09684
2018-02-23 22:40:00+00:00,220.3965,1.1,12.97,47.84626,-54.09684
2018-02-23 22:50:00+00:00,217.5698,1.1,12.97,47.84626,-54.09684
2018-02-23 23:00:00+00:00,221.0681,1.1,12.89,47.84626,-54.09684
2018-02-23 23:10:00+00:00,219.9815,1.12,12.81,47.84626,-54.09684
2018-02-23 23:20:00+00:00,216.5764,1.13,12.89,47.84626,-54.09684
2018-02-23 23:30:00+00:00,219.5614,1.14,12.89,47.84626,-54.09684
2018-02-23 23:40:00+00:00,224.8781,1.15,12.89,47.84626,-54.09684
2018-02-23 23:50:00+00:00,227.7814,1.16,12.97,47.84626,-54.09684
